Weather History for Peachtree City, GA

Change the Weather History Date:

Wednesday, February 20, 2013

  Actual Average Record
Temperature  
Mean Temperature 40 °F 48 °F  
Max Temperature 53 °F 60 °F 77 °F (2014)
Min Temperature 28 °F 35 °F 26 °F (2008)
Degree Days  
Heating Degree Days 24 17  
Month to date heating degree days 383  
Since 1 July heating degree days 2252  
Cooling Degree Days 0 0  
Month to date cooling degree days 0  
Year to date cooling degree days 0  
Moisture  
Dew Point 17 °F    
Average Humidity 42    
Maximum Humidity 75    
Minimum Humidity 19    
Precipitation  
Precipitation 0.00 in 0.21 in 0.36 in (2002)
Month to date precipitation 3.41  
Year to date precipitation 7.61  
Snow  
Snow 0.00 in - - ()
Month to date snowfall  
Since 1 July snowfall  
Snow Depth -    
Sea Level Pressure  
Sea Level Pressure 30.19 in    
Wind  
Wind Speed 7 mph (NW)    
Max Wind Speed 14 mph    
Max Gust Speed 20 mph    
Visibility 10 miles    
Events      
T = Trace of Precipitation, MM = Missing Value Source: NWS Daily Summary

Daily Weather History Graph

Daily Weather History Graph

Search for Another Location

Airport:

Trip Planner

Search our weather history database for the weather conditions in past years. The results will help you decide how hot, cold, wet, or windy it might be!

Date:

Astronomy

Feb. 20, 2013 Rise Set
Actual Time 7:16 AM EST 6:27 PM EST
Civil Twilight 6:51 AM EST 6:52 PM EST
Nautical Twilight 6:22 AM EST 7:21 PM EST
Astronomical Twilight 5:53 AM EST 7:50 PM EST
Moon 1:57 PM EST (2/20) 3:27 AM EST (2/20)
Length of Visible Light 12h 01m
Length of Day
11h 11m
Waxing Gibbous, 76% of the Moon is Illuminated
Feb 20
Waxing Gibbous
Feb 25
Full
Mar 4
Last Quarter
Mar 11
New
Mar 19
First Quarter

Hourly Weather History & Observations

Time (EST) Temp. Windchill Dew Point Humidity Pressure Visibility Wind Dir Wind Speed Gust Speed Precip Events Conditions
12:53 AM 37.0 °F 33.3 °F 19.9 °F 50% 30.19 in 10.0 mi West 4.6 mph - N/A   Clear
1:53 AM 35.1 °F 30.1 °F 21.9 °F 59% 30.19 in 10.0 mi WNW 5.8 mph - N/A   Clear
2:53 AM 37.0 °F 31.0 °F 19.9 °F 50% 30.19 in 10.0 mi NW 8.1 mph - N/A   Clear
3:53 AM 35.1 °F 27.9 °F 19.9 °F 54% 30.17 in 10.0 mi NW 9.2 mph - N/A   Clear
4:53 AM 33.1 °F 26.9 °F 19.9 °F 59% 30.17 in 10.0 mi NNW 6.9 mph - N/A   Clear
5:53 AM 28.9 °F - 21.9 °F 75% 30.18 in 10.0 mi Calm Calm - N/A   Clear
6:53 AM 30.0 °F 26.5 °F 19.9 °F 66% 30.21 in 10.0 mi WNW 3.5 mph - N/A   Clear
7:53 AM 32.0 °F 26.4 °F 21.0 °F 64% 30.23 in 10.0 mi NW 5.8 mph - N/A   Clear
8:53 AM 37.9 °F 30.5 °F 19.0 °F 47% 30.22 in 10.0 mi NW 11.5 mph - N/A   Clear
9:53 AM 41.0 °F 34.3 °F 16.0 °F 36% 30.22 in 10.0 mi NNW 11.5 mph - N/A   Clear
10:53 AM 46.0 °F 41.0 °F 12.9 °F 26% 30.21 in 10.0 mi North 10.4 mph - N/A   Clear
11:53 AM 48.0 °F - 12.9 °F 24% 30.21 in 10.0 mi NNW 9.2 mph - N/A   Clear
12:53 PM 53.1 °F - 12.9 °F 20% 30.19 in 10.0 mi NNW 12.7 mph 19.6 mph N/A   Clear
3:53 PM 51.1 °F - 10.0 °F 19% 30.17 in 10.0 mi WNW 6.9 mph - N/A   Partly Cloudy
4:53 PM 48.9 °F - 9.0 °F 20% 30.20 in 10.0 mi NW 13.8 mph 18.4 mph N/A   Mostly Cloudy
5:53 PM 48.0 °F - 10.9 °F 22% 30.18 in 10.0 mi North 9.2 mph - N/A   Overcast
6:53 PM 46.9 °F - 14.0 °F 27% 30.12 in 10.0 mi Calm Calm - N/A   Mostly Cloudy
8:53 PM 45.0 °F 43.5 °F 19.0 °F 36% 30.17 in 10.0 mi WNW 3.5 mph - N/A   Clear
9:53 PM 43.0 °F 40.3 °F 19.0 °F 38% 30.16 in 10.0 mi NW 4.6 mph - N/A   Clear
11:53 PM 39.0 °F 34.0 °F 19.0 °F 45% 30.17 in 10.0 mi NW 6.9 mph - N/A   Clear